| time (UTC) | temp F | wind direction | speed MPH | gust MPH | rain 1hr in | rain 24hr in | rain mn in | humidity % | barometer mb |
| 20260903225019 | 95 | 204 | 0.0 | 3.0 | 0.00 | 0.00 | 0.00 | 62 | 1010.4 |
| 20260903224530 | 94 | 194 | 0.0 | 3.0 | 0.00 | 0.00 | 0.00 | 66 | 1010.5 |
| 20260903224022 | 94 | 239 | 0.0 | 3.0 | 0.00 | 0.00 | 0.00 | 65 | 1010.5 |
| 20260903223526 | 94 | 206 | 0.0 | 3.0 | 0.00 | 0.00 | 0.00 | 65 | 1010.6 |
| 20260903223028 | 94 | 179 | 0.0 | 3.0 | 0.00 | 0.00 | 0.00 | 65 | 1010.6 |
| 20260903222519 | 93 | 186 | 0.0 | 3.0 | 0.00 | 0.00 | 0.00 | 65 | 1010.6 |
| 20260903222022 | 94 | 194 | 0.0 | 5.0 | 0.00 | 0.00 | 0.00 | 64 | 1010.5 |
| 20260903221518 | 94 | 185 | 0.0 | 5.0 | 0.00 | 0.00 | 0.00 | 62 | 1010.4 |
| 20260903221017 | 95 | 207 | 2.0 | 6.0 | 0.00 | 0.00 | 0.00 | 61 | 1010.3 |
| 20260903220517 | 95 | 208 | 1.0 | 6.0 | 0.00 | 0.00 | 0.00 | 64 | 1010.3 |
| 20260903220017 | 96 | 219 | 1.0 | 4.0 | 0.00 | 0.00 | 0.00 | 59 | 1010.2 |
| 20260903215517 | 96 | 211 | 1.0 | 4.0 | 0.00 | 0.00 | 0.00 | 59 | 1010.3 |
| 20260903215016 | 95 | 211 | 0.0 | 4.0 | 0.00 | 0.00 | 0.00 | 61 | 1010.3 |
| 20260903214516 | 95 | 223 | 1.0 | 5.0 | 0.00 | 0.00 | 0.00 | 60 | 1010.3 |
| 20260903214016 | 95 | 240 | 1.0 | 6.0 | 0.00 | 0.00 | 0.00 | 58 | 1010.4 |
| 20260903213516 | 95 | 198 | 2.0 | 6.0 | 0.00 | 0.00 | 0.00 | 60 | 1010.4 |
| 20260903213025 | 95 | 194 | 1.0 | 6.0 | 0.00 | 0.00 | 0.00 | 62 | 1010.4 |
| 20260903212515 | 96 | 210 | 2.0 | 6.0 | 0.00 | 0.00 | 0.00 | 59 | 1010.4 |
| 20260903212014 | 96 | 203 | 1.0 | 4.0 | 0.00 | 0.00 | 0.00 | 60 | 1010.5 |
| 20260903211513 | 96 | 159 | 1.0 | 5.0 | 0.00 | 0.00 | 0.00 | 62 | 1010.4 |
| 20260903211013 | 96 | 207 | 2.0 | 5.0 | 0.00 | 0.00 | 0.00 | 57 | 1010.5 |
| 20260903210513 | 96 | 173 | 2.0 | 5.0 | 0.00 | 0.00 | 0.00 | 60 | 1010.6 |
| 20260903210013 | 95 | 161 | 2.0 | 5.0 | 0.00 | 0.00 | 0.00 | 58 | 1010.6 |
| 20260903205511 | 95 | 25 | 0.0 | 2.0 | 0.00 | 0.00 | 0.00 | 62 | 1010.6 |
| 20260903205009 | 95 | 25 | 0.0 | 3.0 | 0.00 | 0.00 | 0.00 | 62 | 1010.6 |
| 20260903204509 | 95 | 360 | 0.0 | 3.0 | 0.00 | 0.00 | 0.00 | 64 | 1010.7 |
| 20260903204007 | 94 | 355 | 0.0 | 3.0 | 0.00 | 0.00 | 0.00 | 63 | 1010.8 |
| 20260903203506 | 94 | 355 | 0.0 | 2.0 | 0.00 | 0.00 | 0.00 | 65 | 1010.8 |
| 20260903203014 | 93 | 109 | 0.0 | 1.0 | 0.00 | 0.00 | 0.00 | 65 | 1011.0 |
| 20260903202505 | 92 | 109 | 0.0 | 2.0 | 0.00 | 0.00 | 0.00 | 64 | 1011.0 |
| 20260903202005 | 92 | 109 | 0.0 | 2.0 | 0.00 | 0.00 | 0.00 | 65 | 1011.0 |
| 20260903201506 | 92 | 105 | 0.0 | 2.0 | 0.00 | 0.00 | 0.00 | 69 | 1011.0 |
| 20260903201004 | 92 | 311 | 0.0 | 1.0 | 0.00 | 0.00 | 0.00 | 64 | 1011.0 |
| 20260903200504 | 93 | 311 | 0.0 | 1.0 | 0.00 | 0.00 | 0.00 | 65 | 1011.0 |
| 20260903200005 | 93 | 311 | 0.0 | 1.0 | 0.00 | 0.00 | 0.00 | 63 | 1011.0 |
| 20260903195503 | 94 | 311 | 0.0 | 2.0 | 0.00 | 0.00 | 0.00 | 63 | 1011.0 |
| 20260903195004 | 94 | 311 | 0.0 | 4.0 | 0.00 | 0.00 | 0.00 | 61 | 1011.1 |
| 20260903194502 | 94 | 13 | 0.0 | 4.0 | 0.00 | 0.00 | 0.00 | 64 | 1011.1 |
| 20260903194002 | 94 | 34 | 0.0 | 4.0 | 0.00 | 0.00 | 0.00 | 64 | 1011.2 |
| 20260903193501 | 94 | 30 | 1.0 | 3.0 | 0.00 | 0.00 | 0.00 | 65 | 1011.3 |
| 20260903193100 | 94 | 65 | 0.0 | 1.0 | 0.00 | 0.00 | 0.00 | 63 | 1011.3 |
| 20260903192600 | 93 | 351 | 0.0 | 3.0 | 0.00 | 0.00 | 0.00 | 62 | 1011.4 |
| 20260903192059 | 93 | 351 | 0.0 | 4.0 | 0.00 | 0.00 | 0.00 | 66 | 1011.4 |
| 20260903191559 | 93 | 345 | 2.0 | 5.0 | 0.00 | 0.00 | 0.00 | 65 | 1011.4 |
| 20260903191058 | 93 | 21 | 2.0 | 5.0 | 0.00 | 0.00 | 0.00 | 65 | 1011.5 |
| 20260903190557 | 93 | 40 | 1.0 | 4.0 | 0.00 | 0.00 | 0.00 | 63 | 1011.5 |
| 20260903185557 | 93 | 66 | 1.0 | 4.0 | 0.00 | 0.00 | 0.00 | 66 | 1011.6 |
| 20260903185101 | 93 | 27 | 1.0 | 4.0 | 0.00 | 0.00 | 0.00 | 62 | 1011.6 |
| 20260903184557 | 93 | 137 | 0.0 | 4.0 | 0.00 | 0.00 | 0.00 | 62 | 1011.7 |
| 20260903184057 | 93 | 219 | 1.0 | 5.0 | 0.00 | 0.00 | 0.00 | 65 | 1011.9 |
| 20260903183556 | 93 | 55 | 0.0 | 5.0 | 0.00 | 0.00 | 0.00 | 63 | 1011.9 |
| 20260903183059 | 93 | 76 | 0.0 | 7.0 | 0.00 | 0.00 | 0.00 | 64 | 1012.0 |
| 20260903182557 | 93 | 237 | 3.0 | 7.0 | 0.00 | 0.00 | 0.00 | 65 | 1011.9 |
| 20260903182055 | 93 | 258 | 2.0 | 6.0 | 0.00 | 0.00 | 0.00 | 65 | 1012.0 |
| 20260903181556 | 92 | 300 | 1.0 | 5.0 | 0.00 | 0.00 | 0.00 | 66 | 1012.0 |
| 20260903181055 | 92 | 302 | 1.0 | 5.0 | 0.00 | 0.00 | 0.00 | 66 | 1012.1 |
| 20260903180555 | 92 | 348 | 1.0 | 5.0 | 0.00 | 0.00 | 0.00 | 67 | 1012.1 |
| 20260903180057 | 91 | 342 | 1.0 | 4.0 | 0.00 | 0.00 | 0.00 | 69 | 1012.2 |
| 20260903175557 | 91 | 296 | 1.0 | 4.0 | 0.00 | 0.00 | 0.00 | 66 | 1012.2 |
| 20260903175054 | 91 | 279 | 0.0 | 7.0 | 0.00 | 0.00 | 0.00 | 68 | 1012.3 |
| 20260903174554 | 92 | 276 | 2.0 | 7.0 | 0.00 | 0.00 | 0.00 | 67 | 1012.4 |
| 20260903174055 | 92 | 306 | 0.0 | 6.0 | 0.00 | 0.00 | 0.00 | 68 | 1012.2 |
| 20260903173554 | 92 | 209 | 2.0 | 7.0 | 0.00 | 0.00 | 0.00 | 66 | 1012.0 |
| 20260903173054 | 93 | 193 | 5.0 | 8.0 | 0.00 | 0.00 | 0.00 | 63 | 1011.9 |
| 20260903172554 | 93 | 239 | 3.0 | 8.0 | 0.00 | 0.00 | 0.00 | 65 | 1011.8 |
| 20260903172051 | 93 | 200 | 2.0 | 9.0 | 0.00 | 0.00 | 0.00 | 66 | 1011.9 |
| 20260903171556 | 92 | 169 | 1.0 | 9.0 | 0.00 | 0.00 | 0.00 | 65 | 1012.0 |
| 20260903171050 | 92 | 209 | 4.0 | 8.0 | 0.00 | 0.00 | 0.00 | 65 | 1012.0 |
| 20260903170553 | 92 | 157 | 3.0 | 8.0 | 0.00 | 0.00 | 0.00 | 67 | 1012.0 |
| 20260903170059 | 92 | 219 | 4.0 | 8.0 | 0.00 | 0.00 | 0.00 | 66 | 1011.9 |
| 20260903165549 | 92 | 218 | 4.0 | 8.0 | 0.00 | 0.00 | 0.00 | 65 | 1012.0 |
| 20260903165048 | 92 | 202 | 3.0 | 8.0 | 0.00 | 0.00 | 0.00 | 68 | 1011.9 |
| 20260903164548 | 91 | 182 | 5.0 | 11.0 | 0.00 | 0.00 | 0.00 | 65 | 1011.9 |
| 20260903164048 | 91 | 230 | 4.0 | 11.0 | 0.00 | 0.00 | 0.00 | 69 | 1011.9 |
| 20260903163547 | 91 | 229 | 3.0 | 9.0 | 0.00 | 0.00 | 0.00 | 67 | 1011.9 |
| 20260903163046 | 91 | 184 | 4.0 | 8.0 | 0.00 | 0.00 | 0.00 | 66 | 1011.9 |
| 20260903162546 | 91 | 192 | 4.0 | 8.0 | 0.00 | 0.00 | 0.00 | 67 | 1011.8 |
| 20260903162045 | 91 | 167 | 4.0 | 11.0 | 0.00 | 0.00 | 0.00 | 69 | 1011.8 |
| 20260903161544 | 91 | 218 | 5.0 | 11.0 | 0.00 | 0.00 | 0.00 | 67 | 1011.9 |
| 20260903161042 | 90 | 194 | 4.0 | 7.0 | 0.00 | 0.00 | 0.00 | 67 | 1011.9 |
| 20260903160542 | 90 | 178 | 3.0 | 9.0 | 0.00 | 0.00 | 0.00 | 70 | 1011.9 |
| 20260903160046 | 90 | 173 | 3.0 | 9.0 | 0.00 | 0.00 | 0.00 | 71 | 1012.0 |
| 20260903155541 | 90 | 211 | 3.0 | 9.0 | 0.00 | 0.00 | 0.00 | 69 | 1012.1 |
| 20260903155042 | 90 | 205 | 4.0 | 9.0 | 0.00 | 0.00 | 0.00 | 69 | 1012.1 |
| 20260903154541 | 90 | 196 | 4.0 | 9.0 | 0.00 | 0.00 | 0.00 | 69 | 1012.1 |
| 20260903154045 | 90 | 188 | 3.0 | 7.0 | 0.00 | 0.00 | 0.00 | 70 | 1012.1 |
| 20260903153541 | 89 | 196 | 3.0 | 8.0 | 0.00 | 0.00 | 0.00 | 70 | 1012.1 |
| 20260903153038 | 89 | 205 | 5.0 | 8.0 | 0.00 | 0.00 | 0.00 | 69 | 1012.2 |
| 20260903152538 | 89 | 225 | 4.0 | 8.0 | 0.00 | 0.00 | 0.00 | 68 | 1012.1 |
| 20260903152037 | 89 | 190 | 4.0 | 7.0 | 0.00 | 0.00 | 0.00 | 69 | 1012.1 |
| 20260903151535 | 89 | 221 | 4.0 | 8.0 | 0.00 | 0.00 | 0.00 | 70 | 1012.2 |
| 20260903151039 | 89 | 241 | 4.0 | 8.0 | 0.00 | 0.00 | 0.00 | 69 | 1012.2 |
| 20260903150535 | 89 | 188 | 3.0 | 8.0 | 0.00 | 0.00 | 0.00 | 69 | 1012.2 |
| 20260903150046 | 88 | 237 | 3.0 | 7.0 | 0.00 | 0.00 | 0.00 | 72 | 1012.1 |
| 20260903145537 | 88 | 241 | 3.0 | 7.0 | 0.00 | 0.00 | 0.00 | 71 | 1012.1 |
| 20260903145036 | 88 | 217 | 3.0 | 9.0 | 0.00 | 0.00 | 0.00 | 73 | 1012.1 |
| 20260903144538 | 87 | 233 | 3.0 | 10.0 | 0.00 | 0.00 | 0.00 | 71 | 1012.1 |
| 20260903144031 | 87 | 192 | 4.0 | 10.0 | 0.00 | 0.00 | 0.00 | 72 | 1012.1 |
| 20260903143533 | 87 | 200 | 4.0 | 7.0 | 0.00 | 0.00 | 0.00 | 73 | 1012.0 |
| 20260903143029 | 87 | 210 | 4.0 | 8.0 | 0.00 | 0.00 | 0.00 | 73 | 1012.0 |
| 20260903142532 | 86 | 178 | 4.0 | 8.0 | 0.00 | 0.00 | 0.00 | 73 | 1011.9 |
| 20260903142027 | 86 | 235 | 4.0 | 7.0 | 0.00 | 0.00 | 0.00 | 74 | 1011.9 |
| 20260903141526 | 86 | 187 | 4.0 | 8.0 | 0.00 | 0.00 | 0.00 | 74 | 1011.9 |
| 20260903141025 | 86 | 220 | 3.0 | 7.0 | 0.00 | 0.00 | 0.00 | 76 | 1011.9 |
| 20260903140525 | 85 | 211 | 3.0 | 7.0 | 0.00 | 0.00 | 0.00 | 75 | 1011.9 |
| 20260903140024 | 85 | 238 | 3.0 | 7.0 | 0.00 | 0.00 | 0.00 | 75 | 1011.9 |
| 20260903135522 | 85 | 215 | 4.0 | 7.0 | 0.00 | 0.00 | 0.00 | 75 | 1012.0 |
| 20260903135021 | 84 | 202 | 3.0 | 7.0 | 0.00 | 0.00 | 0.00 | 77 | 1012.0 |
| 20260903134519 | 84 | 200 | 3.0 | 7.0 | 0.00 | 0.00 | 0.00 | 77 | 1012.1 |
| 20260903134019 | 83 | 180 | 1.0 | 6.0 | 0.00 | 0.00 | 0.00 | 80 | 1012.0 |
| 20260903133517 | 83 | 182 | 3.0 | 7.0 | 0.00 | 0.00 | 0.00 | 78 | 1012.0 |
| 20260903133018 | 82 | 198 | 3.0 | 7.0 | 0.00 | 0.00 | 0.00 | 79 | 1012.2 |
| 20260903132519 | 82 | 205 | 3.0 | 6.0 | 0.00 | 0.00 | 0.00 | 80 | 1012.1 |
| 20260903132013 | 82 | 204 | 2.0 | 5.0 | 0.00 | 0.00 | 0.00 | 81 | 1012.2 |
| 20260903131512 | 81 | 188 | 1.0 | 4.0 | 0.00 | 0.00 | 0.00 | 82 | 1012.1 |
| 20260903131012 | 81 | 157 | 1.0 | 3.0 | 0.00 | 0.00 | 0.00 | 85 | 1012.2 |
| 20260903130511 | 80 | 157 | 0.0 | 3.0 | 0.00 | 0.00 | 0.00 | 85 | 1012.1 |
| 20260903130009 | 79 | 157 | 0.0 | 3.0 | 0.00 | 0.00 | 0.00 | 86 | 1012.2 |
| 20260903125507 | 79 | 157 | 0.0 | 3.0 | 0.00 | 0.00 | 0.00 | 86 | 1012.3 |
| 20260903125004 | 78 | 157 | 0.0 | 4.0 | 0.00 | 0.00 | 0.00 | 89 | 1012.3 |
| 20260903124502 | 77 | 157 | 1.0 | 4.0 | 0.00 | 0.00 | 0.00 | 88 | 1012.3 |
| 20260903124001 | 77 | 169 | 0.0 | 3.0 | 0.00 | 0.00 | 0.00 | 89 | 1012.3 |
| 20260903123600 | 76 | 169 | 1.0 | 3.0 | 0.00 | 0.00 | 0.00 | 90 | 1012.4 |
| 20260903123105 | 76 | 169 | 1.0 | 3.0 | 0.00 | 0.00 | 0.00 | 91 | 1012.4 |
| 20260903122558 | 75 | 169 | 1.0 | 3.0 | 0.00 | 0.00 | 0.00 | 92 | 1012.4 |
| 20260903122057 | 74 | 169 | 1.0 | 3.0 | 0.00 | 0.00 | 0.00 | 92 | 1012.3 |
| 20260903121622 | 74 | 167 | 0.0 | 0.0 | 0.00 | 0.00 | 0.00 | 93 | 1012.3 |
| 20260903121058 | 73 | 167 | 0.0 | 0.0 | 0.00 | 0.00 | 0.00 | 94 | 1012.3 |
| 20260903120556 | 73 | 173 | 0.0 | 0.0 | 0.00 | 0.00 | 0.00 | 94 | 1012.4 |
| 20260903120056 | 72 | 173 | 0.0 | 0.0 | 0.00 | 0.00 | 0.00 | 93 | 1012.3 |
| 20260903115559 | 72 | 173 | 0.0 | 0.0 | 0.00 | 0.00 | 0.00 | 93 | 1012.3 |
| 20260903115055 | 72 | 173 | 0.0 | 0.0 | 0.00 | 0.00 | 0.00 | 93 | 1012.3 |
| 20260903114555 | 72 | 173 | 0.0 | 0.0 | 0.00 | 0.00 | 0.00 | 93 | 1012.2 |
| 20260903114054 | 72 | 173 | 0.0 | 0.0 | 0.00 | 0.00 | 0.00 | 93 | 1012.2 |
| 20260903113554 | 72 | 173 | 0.0 | 0.0 | 0.00 | 0.00 | 0.00 | 93 | 1012.2 |
| 20260903113054 | 72 | 173 | 0.0 | 0.0 | 0.00 | 0.00 | 0.00 | 93 | 1012.2 |
| 20260903112555 | 72 | 173 | 0.0 | 0.0 | 0.00 | 0.00 | 0.00 | 92 | 1012.2 |
| 20260903112053 | 72 | 173 | 0.0 | 0.0 | 0.00 | 0.00 | 0.00 | 92 | 1012.2 |
| 20260903111553 | 72 | 173 | 0.0 | 0.0 | 0.00 | 0.00 | 0.00 | 92 | 1012.2 |
| 20260903111053 | 72 | 173 | 0.0 | 0.0 | 0.00 | 0.00 | 0.00 | 92 | 1012.2 |
| 20260903110552 | 72 | 173 | 0.0 | 0.0 | 0.00 | 0.00 | 0.00 | 91 | 1012.2 |
| 20260903110051 | 72 | 173 | 0.0 | 0.0 | 0.00 | 0.00 | 0.00 | 92 | 1012.2 |
| 20260903105550 | 72 | 173 | 0.0 | 0.0 | 0.00 | 0.00 | 0.00 | 92 | 1012.2 |
| 20260903105050 | 73 | 173 | 0.0 | 0.0 | 0.00 | 0.00 | 0.00 | 91 | 1012.1 |
| 20260903104556 | 73 | 173 | 0.0 | 0.0 | 0.00 | 0.00 | 0.00 | 91 | 1012.1 |
| 20260903104049 | 73 | 173 | 0.0 | 0.0 | 0.00 | 0.00 | 0.00 | 91 | 1012.1 |
| 20260903103549 | 73 | 173 | 0.0 | 0.0 | 0.00 | 0.00 | 0.00 | 92 | 1012.2 |
| 20260903103051 | 73 | 173 | 0.0 | 0.0 | 0.00 | 0.00 | 0.00 | 92 | 1012.1 |
| 20260903102550 | 73 | 173 | 0.0 | 0.0 | 0.00 | 0.00 | 0.00 | 92 | 1012.2 |
| 20260903102050 | 73 | 173 | 0.0 | 0.0 | 0.00 | 0.00 | 0.00 | 92 | 1012.2 |
| 20260903101551 | 73 | 173 | 0.0 | 0.0 | 0.00 | 0.00 | 0.00 | 91 | 1012.1 |
| 20260903101048 | 73 | 173 | 0.0 | 0.0 | 0.00 | 0.00 | 0.00 | 91 | 1012.1 |
| 20260903100548 | 73 | 173 | 0.0 | 0.0 | 0.00 | 0.00 | 0.00 | 91 | 1012.1 |
| 20260903100048 | 73 | 173 | 0.0 | 0.0 | 0.00 | 0.00 | 0.00 | 91 | 1012.0 |
| 20260903095547 | 73 | 173 | 0.0 | 0.0 | 0.00 | 0.00 | 0.00 | 91 | 1012.0 |
| 20260903095047 | 73 | 171 | 0.0 | 0.0 | 0.00 | 0.00 | 0.00 | 91 | 1012.0 |
| 20260903094553 | 73 | 171 | 0.0 | 0.0 | 0.00 | 0.00 | 0.00 | 91 | 1012.0 |
| 20260903094046 | 73 | 171 | 0.0 | 0.0 | 0.00 | 0.00 | 0.00 | 91 | 1012.0 |
| 20260903093547 | 73 | 171 | 0.0 | 0.0 | 0.00 | 0.00 | 0.00 | 91 | 1012.0 |
| 20260903093058 | 73 | 171 | 0.0 | 0.0 | 0.00 | 0.00 | 0.00 | 91 | 1012.0 |
| 20260903092546 | 73 | 171 | 0.0 | 0.0 | 0.00 | 0.00 | 0.00 | 91 | 1011.9 |
| 20260903092046 | 73 | 171 | 0.0 | 0.0 | 0.00 | 0.00 | 0.00 | 91 | 1011.9 |
| 20260903091553 | 73 | 171 | 0.0 | 0.0 | 0.00 | 0.00 | 0.00 | 90 | 1011.9 |
| 20260903091045 | 73 | 171 | 0.0 | 0.0 | 0.00 | 0.00 | 0.00 | 90 | 1011.9 |
| 20260903090544 | 73 | 171 | 0.0 | 0.0 | 0.00 | 0.00 | 0.00 | 90 | 1011.9 |
| 20260903090047 | 73 | 171 | 0.0 | 0.0 | 0.00 | 0.00 | 0.00 | 90 | 1011.8 |
| 20260903085547 | 73 | 171 | 0.0 | 0.0 | 0.00 | 0.00 | 0.00 | 90 | 1011.7 |
| 20260903085044 | 74 | 171 | 0.0 | 0.0 | 0.00 | 0.00 | 0.00 | 90 | 1011.7 |
| 20260903084546 | 74 | 171 | 0.0 | 0.0 | 0.00 | 0.00 | 0.00 | 90 | 1011.7 |
| 20260903084046 | 74 | 171 | 0.0 | 0.0 | 0.00 | 0.00 | 0.00 | 89 | 1011.7 |
| 20260903083545 | 74 | 171 | 0.0 | 0.0 | 0.00 | 0.00 | 0.00 | 90 | 1011.7 |
| 20260903083048 | 74 | 171 | 0.0 | 0.0 | 0.00 | 0.00 | 0.00 | 90 | 1011.8 |
| 20260903082543 | 74 | 171 | 0.0 | 0.0 | 0.00 | 0.00 | 0.00 | 90 | 1011.8 |
| 20260903082043 | 74 | 171 | 0.0 | 2.0 | 0.00 | 0.00 | 0.00 | 90 | 1011.7 |
| 20260903081542 | 74 | 171 | 0.0 | 3.0 | 0.00 | 0.00 | 0.00 | 91 | 1011.7 |
| 20260903081042 | 74 | 171 | 0.0 | 3.0 | 0.00 | 0.00 | 0.00 | 91 | 1011.7 |
| 20260903080542 | 73 | 171 | 1.0 | 3.0 | 0.00 | 0.00 | 0.00 | 91 | 1011.7 |
| 20260903080044 | 73 | 171 | 0.0 | 2.0 | 0.00 | 0.00 | 0.00 | 92 | 1011.8 |
| 20260903075542 | 73 | 171 | 0.0 | 2.0 | 0.00 | 0.00 | 0.00 | 92 | 1011.8 |
| 20260903075041 | 73 | 171 | 0.0 | 2.0 | 0.00 | 0.00 | 0.00 | 92 | 1011.8 |
| 20260903074542 | 73 | 171 | 0.0 | 0.0 | 0.00 | 0.00 | 0.00 | 93 | 1011.8 |
| 20260903074041 | 73 | 171 | 0.0 | 0.0 | 0.00 | 0.00 | 0.00 | 93 | 1011.8 |
| 20260903073542 | 73 | 171 | 0.0 | 0.0 | 0.00 | 0.00 | 0.00 | 93 | 1011.7 |
| 20260903073041 | 73 | 171 | 0.0 | 0.0 | 0.00 | 0.00 | 0.00 | 93 | 1011.7 |
| 20260903072540 | 73 | 171 | 0.0 | 0.0 | 0.00 | 0.00 | 0.00 | 93 | 1011.7 |
| 20260903072041 | 73 | 171 | 0.0 | 0.0 | 0.00 | 0.00 | 0.00 | 94 | 1011.7 |
| 20260903071542 | 73 | 171 | 0.0 | 0.0 | 0.00 | 0.00 | 0.00 | 94 | 1011.7 |
| 20260903071042 | 73 | 171 | 0.0 | 0.0 | 0.00 | 0.00 | 0.00 | 94 | 1011.7 |
| 20260903070539 | 73 | 171 | 0.0 | 0.0 | 0.00 | 0.00 | 0.00 | 93 | 1011.7 |
| 20260903070039 | 73 | 171 | 0.0 | 0.0 | 0.00 | 0.00 | 0.00 | 93 | 1011.7 |
| 20260903065541 | 73 | 171 | 0.0 | 0.0 | 0.00 | 0.00 | 0.00 | 93 | 1011.7 |
| 20260903065038 | 73 | 171 | 0.0 | 0.0 | 0.00 | 0.00 | 0.00 | 93 | 1011.7 |
| 20260903064540 | 73 | 171 | 0.0 | 0.0 | 0.00 | 0.00 | 0.00 | 93 | 1011.7 |
| 20260903064038 | 73 | 171 | 0.0 | 0.0 | 0.00 | 0.00 | 0.00 | 94 | 1011.7 |
| 20260903063540 | 73 | 171 | 0.0 | 0.0 | 0.00 | 0.00 | 0.00 | 94 | 1011.7 |
| 20260903063042 | 73 | 171 | 0.0 | 0.0 | 0.00 | 0.00 | 0.00 | 94 | 1011.7 |
| 20260903062538 | 73 | 171 | 0.0 | 0.0 | 0.00 | 0.00 | 0.00 | 94 | 1011.8 |
| 20260903062038 | 73 | 171 | 0.0 | 0.0 | 0.00 | 0.00 | 0.00 | 94 | 1011.8 |
| 20260903061537 | 73 | 171 | 0.0 | 0.0 | 0.00 | 0.00 | 0.00 | 93 | 1011.8 |
| 20260903061037 | 73 | 171 | 0.0 | 0.0 | 0.00 | 0.00 | 0.00 | 93 | 1011.8 |
| 20260903060535 | 73 | 171 | 0.0 | 0.0 | 0.00 | 0.00 | 0.00 | 93 | 1011.7 |
| 20260903060042 | 73 | 171 | 0.0 | 0.0 | 0.00 | 0.00 | 0.00 | 93 | 1011.8 |
| 20260903055535 | 73 | 171 | 0.0 | 0.0 | 0.00 | 0.00 | 0.00 | 94 | 1011.7 |
| 20260903055035 | 73 | 171 | 0.0 | 0.0 | 0.00 | 0.00 | 0.00 | 93 | 1011.7 |
| 20260903054533 | 73 | 171 | 0.0 | 0.0 | 0.00 | 0.00 | 0.00 | 93 | 1011.7 |
| 20260903054033 | 73 | 171 | 0.0 | 0.0 | 0.00 | 0.00 | 0.00 | 93 | 1011.7 |
| 20260903053533 | 73 | 171 | 0.0 | 0.0 | 0.00 | 0.00 | 0.00 | 93 | 1011.7 |
| 20260903053037 | 73 | 171 | 0.0 | 0.0 | 0.00 | 0.00 | 0.00 | 92 | 1011.7 |
| 20260903052531 | 74 | 171 | 0.0 | 0.0 | 0.00 | 0.00 | 0.00 | 92 | 1011.7 |
| 20260903052030 | 74 | 171 | 0.0 | 0.0 | 0.00 | 0.00 | 0.00 | 92 | 1011.6 |
| 20260903051528 | 74 | 171 | 0.0 | 0.0 | 0.00 | 0.00 | 0.00 | 92 | 1011.5 |
| 20260903051028 | 74 | 171 | 0.0 | 0.0 | 0.00 | 0.00 | 0.00 | 92 | 1011.5 |
| 20260903050527 | 74 | 171 | 0.0 | 0.0 | 0.00 | 0.00 | 0.00 | 91 | 1011.5 |
| 20260903050034 | 75 | 171 | 0.0 | 0.0 | 0.00 | 0.00 | 0.00 | 91 | 1011.5 |
| 20260903045526 | 75 | 171 | 0.0 | 0.0 | 0.00 | 0.00 | 0.00 | 91 | 1011.5 |
| 20260903045027 | 75 | 171 | 0.0 | 0.0 | 0.00 | 0.00 | 0.00 | 91 | 1011.5 |
| 20260903044528 | 75 | 171 | 0.0 | 0.0 | 0.00 | 0.00 | 0.00 | 91 | 1011.5 |
| 20260903044029 | 76 | 171 | 0.0 | 0.0 | 0.00 | 0.00 | 0.00 | 90 | 1011.5 |
| 20260903043528 | 76 | 171 | 0.0 | 0.0 | 0.00 | 0.00 | 0.00 | 91 | 1011.5 |
| 20260903043028 | 76 | 171 | 0.0 | 0.0 | 0.00 | 0.00 | 0.00 | 91 | 1011.4 |
| 20260903042526 | 76 | 171 | 0.0 | 0.0 | 0.00 | 0.00 | 0.00 | 91 | 1011.4 |
| 20260903042026 | 76 | 171 | 0.0 | 0.0 | 0.00 | 0.00 | 0.00 | 91 | 1011.4 |
| 20260903041524 | 76 | 171 | 0.0 | 0.0 | 0.00 | 0.00 | 0.00 | 91 | 1011.5 |
| 20260903041025 | 77 | 171 | 0.0 | 0.0 | 0.00 | 0.00 | 0.00 | 91 | 1011.4 |
| 20260903040525 | 77 | 171 | 0.0 | 0.0 | 0.00 | 0.00 | 0.00 | 91 | 1011.5 |
| 20260903040027 | 76 | 171 | 0.0 | 0.0 | 0.00 | 0.00 | 0.00 | 91 | 1011.4 |
| 20260903035527 | 77 | 171 | 0.0 | 0.0 | 0.00 | 0.00 | 0.00 | 91 | 1011.4 |
| 20260903035024 | 77 | 171 | 0.0 | 0.0 | 0.00 | 0.00 | 0.00 | 90 | 1011.4 |
| 20260903034529 | 77 | 171 | 0.0 | 0.0 | 0.00 | 0.00 | 0.00 | 91 | 1011.2 |
| 20260903034027 | 77 | 171 | 0.0 | 1.0 | 0.00 | 0.00 | 0.00 | 91 | 1011.2 |
| 20260903033524 | 77 | 171 | 0.0 | 1.0 | 0.00 | 0.00 | 0.00 | 90 | 1011.2 |
| 20260903033029 | 77 | 171 | 0.0 | 1.0 | 0.00 | 0.00 | 0.00 | 90 | 1011.2 |
| 20260903032529 | 77 | 171 | 0.0 | 3.0 | 0.00 | 0.00 | 0.00 | 91 | 1011.2 |
| 20260903032024 | 77 | 171 | 0.0 | 3.0 | 0.00 | 0.00 | 0.00 | 91 | 1011.2 |
| 20260903031530 | 77 | 165 | 0.0 | 1.0 | 0.00 | 0.00 | 0.00 | 91 | 1011.2 |
| 20260903031028 | 77 | 165 | 0.0 | 0.0 | 0.00 | 0.00 | 0.00 | 91 | 1011.2 |
| 20260903030523 | 77 | 165 | 0.0 | 1.0 | 0.00 | 0.00 | 0.00 | 91 | 1011.2 |
| 20260903030024 | 77 | 165 | 0.0 | 1.0 | 0.00 | 0.00 | 0.00 | 90 | 1011.2 |
| 20260903025523 | 77 | 165 | 0.0 | 0.0 | 0.00 | 0.00 | 0.00 | 90 | 1011.2 |
| 20260903025023 | 78 | 165 | 0.0 | 0.0 | 0.00 | 0.00 | 0.00 | 90 | 1011.2 |
| 20260903024523 | 78 | 165 | 0.0 | 0.0 | 0.00 | 0.00 | 0.00 | 89 | 1011.2 |
| 20260903024022 | 78 | 165 | 0.0 | 1.0 | 0.00 | 0.00 | 0.00 | 89 | 1011.2 |
| 20260903023530 | 78 | 165 | 0.0 | 3.0 | 0.00 | 0.00 | 0.00 | 89 | 1011.3 |
| 20260903023024 | 78 | 165 | 0.0 | 3.0 | 0.00 | 0.00 | 0.00 | 89 | 1011.3 |
| 20260903022523 | 78 | 168 | 1.0 | 3.0 | 0.00 | 0.00 | 0.00 | 89 | 1011.3 |
| 20260903022028 | 78 | 165 | 1.0 | 4.0 | 0.00 | 0.00 | 0.00 | 89 | 1011.2 |
| 20260903021534 | 78 | 154 | 1.0 | 4.0 | 0.00 | 0.00 | 0.00 | 89 | 1011.1 |
| 20260903021023 | 78 | 167 | 1.0 | 3.0 | 0.00 | 0.00 | 0.00 | 89 | 1011.2 |
| 20260903020523 | 78 | 173 | 0.0 | 2.0 | 0.00 | 0.00 | 0.00 | 89 | 1011.2 |
| 20260903020027 | 78 | 173 | 0.0 | 2.0 | 0.00 | 0.00 | 0.00 | 89 | 1011.2 |
| 20260903015521 | 78 | 173 | 0.0 | 2.0 | 0.00 | 0.00 | 0.00 | 89 | 1011.1 |
| 20260903015022 | 78 | 160 | 0.0 | 2.0 | 0.00 | 0.00 | 0.00 | 89 | 1011.1 |
| 20260903014521 | 78 | 160 | 0.0 | 0.0 | 0.00 | 0.00 | 0.00 | 89 | 1011.0 |
| 20260903014025 | 79 | 188 | 0.0 | 0.0 | 0.00 | 0.00 | 0.00 | 89 | 1011.0 |
| 20260903013527 | 79 | 188 | 0.0 | 0.0 | 0.00 | 0.00 | 0.00 | 89 | 1011.0 |
| 20260903013021 | 79 | 188 | 0.0 | 0.0 | 0.00 | 0.00 | 0.00 | 89 | 1011.0 |
| 20260903012522 | 79 | 188 | 0.0 | 0.0 | 0.00 | 0.00 | 0.00 | 89 | 1010.9 |
| 20260903012021 | 79 | 188 | 0.0 | 0.0 | 0.00 | 0.00 | 0.00 | 89 | 1010.9 |
| 20260903011522 | 79 | 188 | 0.0 | 0.0 | 0.00 | 0.00 | 0.00 | 88 | 1010.9 |
| 20260903011021 | 80 | 188 | 0.0 | 0.0 | 0.00 | 0.00 | 0.00 | 88 | 1010.8 |
| 20260903010524 | 80 | 188 | 0.0 | 0.0 | 0.00 | 0.00 | 0.00 | 87 | 1010.8 |
| 20260903010025 | 81 | 188 | 0.0 | 0.0 | 0.00 | 0.00 | 0.00 | 86 | 1010.8 |
| 20260903005520 | 81 | 188 | 0.0 | 0.0 | 0.00 | 0.00 | 0.00 | 86 | 1010.8 |
| 20260903005019 | 82 | 188 | 0.0 | 0.0 | 0.00 | 0.00 | 0.00 | 85 | 1010.8 |
| 20260903004526 | 82 | 188 | 0.0 | 0.0 | 0.00 | 0.00 | 0.00 | 85 | 1010.8 |
| 20260903004019 | 83 | 188 | 0.0 | 0.0 | 0.00 | 0.00 | 0.00 | 84 | 1010.8 |
| 20260903003520 | 83 | 188 | 0.0 | 0.0 | 0.00 | 0.00 | 0.00 | 83 | 1010.7 |
| 20260903003018 | 84 | 188 | 0.0 | 0.0 | 0.00 | 0.00 | 0.00 | 83 | 1010.8 |
| 20260903002518 | 84 | 188 | 0.0 | 0.0 | 0.00 | 0.00 | 0.00 | 82 | 1010.8 |
| 20260903002020 | 85 | 188 | 0.0 | 0.0 | 0.00 | 0.00 | 0.00 | 81 | 1010.8 |
| 20260903001517 | 85 | 188 | 0.0 | 0.0 | 0.00 | 0.00 | 0.00 | 80 | 1010.8 |
| 20260903001017 | 86 | 188 | 0.0 | 0.0 | 0.00 | 0.00 | 0.00 | 79 | 1010.8 |
| 20260903000521 | 87 | 188 | 0.0 | 0.0 | 0.00 | 0.00 | 0.00 | 77 | 1010.8 |
| 20260903000034 | 87 | 188 | 0.0 | 1.0 | 0.00 | 0.00 | 0.00 | 76 | 1010.9 |
| 20260902235517 | 88 | 188 | 0.0 | 1.0 | 0.00 | 0.00 | 0.00 | 75 | 1010.9 |
| 20260902235017 | 88 | 188 | 0.0 | 2.0 | 0.00 | 0.00 | 0.00 | 74 | 1010.9 |
| 20260902234516 | 88 | 188 | 0.0 | 3.0 | 0.00 | 0.00 | 0.00 | 73 | 1011.0 |
| 20260902234017 | 89 | 184 | 0.0 | 4.0 | 0.00 | 0.00 | 0.00 | 72 | 1011.0 |
| 20260902233516 | 89 | 200 | 1.0 | 4.0 | 0.00 | 0.00 | 0.00 | 71 | 1011.0 |
| 20260902233016 | 90 | 190 | 1.0 | 6.0 | 0.00 | 0.00 | 0.00 | 71 | 1011.0 |
| 20260902232515 | 90 | 190 | 2.0 | 6.0 | 0.00 | 0.00 | 0.00 | 69 | 1011.0 |
| 20260902232015 | 90 | 171 | 1.0 | 6.0 | 0.00 | 0.00 | 0.00 | 69 | 1011.0 |
| 20260902231518 | 90 | 197 | 2.0 | 6.0 | 0.00 | 0.00 | 0.00 | 69 | 1010.9 |
| 20260902231015 | 91 | 200 | 2.0 | 5.0 | 0.00 | 0.00 | 0.00 | 68 | 1011.0 |
| 20260902230516 | 92 | 211 | 1.0 | 5.0 | 0.00 | 0.00 | 0.00 | 67 | 1011.0 |
| 20260902230014 | 92 | 204 | 2.0 | 5.0 | 0.00 | 0.00 | 0.00 | 67 | 1011.0 |
| 20260902225515 | 93 | 198 | 2.0 | 9.0 | 0.00 | 0.00 | 0.00 | 67 | 1011.0 |